Regional Weather Roundup
Issued by NWS

Home | Current Version | Previous Version | Text Only | Print | Product List | Glossary Off
Versions: 1 2 3 4 5 6 7 8 9 10 11 12 13 14 15 16 17 18 19 20 21 22 23 24 25 26 27 28 29 30 31 32 33 34 35 36 37 38 39 40 41 42 43 44 45 46 47 48 49 50

000
ASUS45 KABQ 050401
RWRNM
NEW MEXICO REGIONAL WEATHER ROUNDUP
NATIONAL WEATHER SERVICE ALBUQUERQUE NM
1000 PM MDT FRI SEP 04 2015

NOTE: "FAIR" MEANS FEW OR NO CLOUDS BELOW 12,000 FEET AGL WITH NO
       SIGNIFICANT WEATHER OR OBSTRUCTIONS TO VISION.

      THIS PRODUCT IS RELEASED AS TWO VERSIONS.  ONE VERSION NEAR
      THE TOP OF THE HOUR CONTAINING PRELIMINARY DATA FROM ALBUQUERQUE
      AND OTHER STATIONS.  A FINAL VERSION WITH ADDITIONAL DATA IS
      ISSUED ABOUT 10 MINUTES AFTER THE HOUR.

NMZ501-503-504-510>518-050500-
NORTHWEST PLATEAU/NORTHCENTRAL MOUNTAINS

CITY           SKY/WX    TMP DP  RH WIND       PRES   REMARKS
FARMINGTON     LGT RAIN  63  56  78 SE7       30.12R
SANTA FE       LGT RAIN  61  55  81 S3        30.21R
TAOS           CLOUDY    57  48  72 CALM      30.28S

$$
NMZ402-403-502-505>509-050500-
WESTCENTRAL MOUNTAINS/SOUTHWEST MOUNTAINS

CITY           SKY/WX    TMP DP  RH WIND       PRES   REMARKS
GALLUP         CLOUDY    61  54  77 S3        30.17R
SILVER CITY      N/A     63  59  88 N9        30.20R

$$
NMZ407-409-411-412-050500-
SOUTHERN DESERTS

CITY           SKY/WX    TMP DP  RH WIND       PRES   REMARKS
DEMING         CLOUDY    67  62  84 NW7       30.12R
HOLLOMAN AFB   CLOUDY    78  54  43 N10       30.03R
ALAMOGORDO     CLOUDY    77  52  41 N10       30.06R
T OR C         CLOUDY    69  58  67 NW8       30.11R

$$
NMZ519>523-050500-
CENTRAL VALLEYS/CENTRAL HIGHLANDS

CITY           SKY/WX    TMP DP  RH WIND       PRES   REMARKS
ALBUQUERQUE    CLOUDY    65  58  78 SE5       30.16R
MORIARTY ARPT  CLOUDY    62  56  81 CALM      30.23R
CLINES CORNERS CLOUDY    60  53  77 W9        30.24R
BELEN          CLOUDY    65  60  85 CALM      30.15R
SOCORRO        NOT AVBL

$$
NMZ524>526-539-540-050500-
SOUTHCENTRAL MOUNTAINS

CITY           SKY/WX    TMP DP  RH WIND       PRES   REMARKS
RUIDOSO        CLOUDY    63  54  72 SW5       30.26R

$$
NMZ527>531-050500-
NORTHEAST HIGHLANDS/NORTHEAST PLAINS

CITY           SKY/WX    TMP DP  RH WIND       PRES   REMARKS
LAS VEGAS      CLOUDY    63  49  60 SW8       30.22S
RATON          CLOUDY    65  48  54 S6        30.15R
CLAYTON        CLOUDY    74  51  44 W7        30.07R

$$
NMZ532>537-050500-
EASTCENTRAL PLAINS

CITY           SKY/WX    TMP DP  RH WIND       PRES   REMARKS
TUCUMCARI      CLOUDY    74  55  51 SW3       30.03R
CANNON AFB     MOCLDY    72  55  53 S5        30.06R
CLOVIS AIRPORT PTCLDY    75  52  43 SE12      30.07R

$$
NMZ028-029-538-050500-
SOUTHEAST PLAINS

CITY           SKY/WX    TMP DP  RH WIND       PRES   REMARKS
ROSWELL        CLOUDY    84  53  34 N15G21    30.00R
ARTESIA        PTCLDY    79  50  36 SE7       29.99R
CARLSBAD       CLEAR     81  50  33 S7        29.96R
HOBBS            N/A     73  50  43 SE7       30.03R


$$



USA.gov is the U.S. government's official web portal to all federal, state and local government web resources and services.